Location: Riverside Cemetery
(38.3047°N, 99.7773°W)
Time: 03:26:33
(UTC+00:00)

Cosmos 2360 Rocket - Pass Details

Date: 19 September 2020
Orbit: 835 x 844 km, 71.0° (Epoch: 22 October)

Event Time Altitude Azimuth Distance (km) Brightness Sun altitude
Rises 10:48:18 0° 175° (S) 3,384 5.2 -19.4°
Reaches altitude 10° 10:50:57 10° 165° (SSE) 2,454 4.6 -18.9°
Maximum altitude 10:55:55 33° 104° (ESE) 1,393 3.9 -18.0°
Drops below altitude 10° 11:00:53 10° 42° (NE) 2,467 5.5 -17.0°
Sets 11:03:33 0° 33° (NNE) 3,405 6.1 -16.5°
